Location: ?????????
(54.7630°N, 39.4991°E)
Time: 20:35:27
(UTC+00:00)

USA 234 - Pass Details

Date: 14 April 2026
Orbit: 1102 x 1106 km, 123.0° (Epoch: 4 January)

Event Time Altitude Azimuth Distance (km) Brightness Sun altitude
Rises 20:37:29 0° 88° (E) 3,921 6.1 -24.9°
Reaches altitude 10° 20:39:57 10° 87° (E) 2,964 5.4 -25.0°
Maximum altitude 20:46:29 75° 4° (N) 1,144 3.4 -25.1°
Drops below altitude 10° 20:53:01 10° 281° (W) 2,968 5.7 -25.3°
Sets 20:55:30 0° 279° (W) 3,927 6.4 -25.3°
